Lid_Strength_Index
3 4 5 5 5 4 4 4 5 5 6 5 5 5 5 4 4 5 4 1 -1 -0 -0 0 1 1 1 2 2 2 3 3 3 3 3 3 3 4 4 4 4 4 4
2 4 4 4 4 3 3 3 5 6 5 7 6 6 6 5 5 6 6 5 1 1 1 1 1 1 2 2 2 3 3 3 3 3 4 4 4 4 4 4 4 4 5
1 4 4 4 3 3 4 4 5 6 8 7 9 8 8 7 6 7 8 8 7 3 1 2 2 2 2 2 3 3 3 3 4 4 5 5 4 4 5 5 5 5 5
1 3 4 5 4 4 4 5 7 8 9 10 10 11 11 11 10 9 9 9 9 9 5 3 3 3 3 3 3 4 4 5 5 5 5 5 5 5 5 5 6 6 6
1 2 4 5 5 5 5 6 8 8 10 11 12 12 13 14 13 12 12 11 10 10 10 6 5 4 4 4 4 4 5 6 6 5 6 6 5 5 5 6 6 6 6
1 2 3 6 6 6 7 7 8 9 10 12 12 14 13 14 14 15 14 13 12 12 13 12 11 9 5 5 5 5 5 6 6 6 6 7 7 7 6 6 6 6 6
1 2 3 5 6 7 8 8 9 10 12 12 13 15 14 14 15 15 15 15 15 15 14 13 13 12 11 6 6 6 6 6 7 7 7 7 7 7 7 7 6 6 6
1 2 3 4 6 7 8 9 9 11 11 12 13 14 16 15 16 15 16 16 16 16 15 15 15 14 13 13 11 7 7 7 8 8 8 8 8 8 7 7 7 6 6
1 1 2 3 4 6 8 9 10 10 12 12 12 12 16 16 18 15 16 16 17 17 17 16 16 14 14 14 12 11 9 9 9 9 9 9 9 9 8 7 7 7 6
4 2 2 3 5 5 7 9 10 9 10 12 12 12 11 14 16 18 16 17 17 17 18 18 17 16 15 15 14 13 11 11 11 11 11 10 10 9 8 7 7 7 6
6 4 2 3 4 4 5 7 9 8 9 10 11 12 12 14 14 16 19 18 17 18 17 17 17 17 16 15 15 14 12 12 12 12 12 11 10 9 8 8 7 7 6
6 5 4 2 3 3 4 6 8 8 8 9 10 9 11 13 13 16 18 18 18 18 18 17 17 17 17 16 14 14 12 12 12 12 12 11 10 9 9 8 7 7 6
6 4 4 3 3 3 4 5 7 8 8 9 10 9 10 10 12 14 16 18 18 18 17 17 16 16 16 16 15 14 13 13 12 12 12 11 10 10 9 8 7 7 7
6 6 5 4 4 4 5 6 7 8 8 9 9 10 9 10 12 13 15 17 19 19 18 18 16 16 16 16 16 13 16 13 12 12 12 11 10 9 9 8 8 7 7
6 6 6 6 5 6 6 6 7 8 8 9 9 10 10 11 12 13 14 15 15 20 19 18 18 16 15 16 15 15 17 14 12 12 11 11 10 9 9 9 8 7 7
7 7 7 6 6 6 7 7 8 8 9 9 9 10 10 10 11 12 13 14 16 16 18 18 18 16 16 16 15 16 16 14 13 12 11 10 10 10 9 9 8 8 8
7 7 8 7 7 8 8 7 7 8 9 9 9 10 10 10 12 14 15 16 16 16 18 18 17 16 16 17 17 16 16 16 15 12 12 11 10 10 9 9 9 9 8
8 8 9 9 9 8 8 8 9 9 10 10 10 11 11 14 14 15 15 16 15 16 17 18 18 18 18 17 17 17 17 16 16 13 11 11 10 10 10 9 9 9 9
9 10 11 11 11 11 10 9 9 10 10 10 11 12 12 15 15 16 15 16 16 16 17 18 19 18 18 18 18 17 16 16 15 13 11 11 10 10 10 9 9 9 9
10 12 12 12 13 14 12 12 11 11 11 11 11 12 13 15 15 16 16 16 17 17 17 18 18 18 18 18 18 17 17 16 16 15 13 13 12 11 10 9 9 10 10
11 12 13 14 14 14 13 13 13 12 13 13 14 14 14 14 14 14 15 16 16 17 17 18 18 18 18 18 18 17 17 16 16 15 15 15 15 15 14 11 11 10 9
13 14 14 14 15 14 12 12 13 14 14 14 15 16 15 15 14 14 14 14 15 17 17 17 17 17 17 16 17 16 16 17 18 15 17 17 15 16 14 14 10 9 8
14 14 15 15 16 15 13 12 12 15 15 15 16 16 16 15 15 15 13 13 14 13 14 15 16 16 16 16 16 16 16 16 17 16 17 17 15 15 14 12 9 9 9
15 16 17 17 17 16 13 12 13 16 15 15 15 15 15 16 15 15 15 15 15 15 14 14 15 15 15 15 14 14 15 16 17 16 15 19 16 16 14 13 10 9 9
18 18 17 17 15 16 13 13 13 16 16 16 16 15 15 15 14 13 16 16 16 15 13 13 13 12 12 12 13 14 18 17 19 17 14 16 16 16 16 16 14 12 12
17 16 15 15 15 15 13 12 14 16 17 16 16 16 15 14 13 13 15 15 16 16 15 15 14 12 12 12 10 12 14 16 15 16 15 15 17 18 20 18 16 16 16